Orbital Elements at Epoch 2459000.5 (2020-May-31.0) TDB
Reference: JPL 31 (heliocentric ecliptic J2000)
Element | Value | Uncertainty (1-sigma) | Units |
e | .1112001279559519 | 3.4925e-08 | |
a | 2.292544128553144 | 6.8888e-09 | au |
q | 2.037612928113369 | 7.9778e-08 | au |
i | 5.883705958096071 | 5.0458e-06 | deg |
node | 349.7696980360658 | 3.5343e-05 | deg |
peri | 294.5710091028423 | 4.5782e-05 | deg |
M | 144.121628934389 | 3.1624e-05 | deg |
tp | 2458492.923339276396 (2019-Jan-09.42333928) | 0.0001109 | TDB |
period | 1267.870750639958 3.47 | 5.7147e-06 1.565e-08 | d yr |
n | .2839406144658593 | 1.2798e-09 | deg/d |
Q | 2.547475328992921 | 7.6548e-09 | au |
|
| | Orbit Determination Parameters
Additional Information
|